QPF
0.00 0.00 0.00 0.00 0.00 0.00 0.00 0.00 0.00 0.00 0.00 0.00 0.00 0.00 0.00 0.00 0.00 0.00 0.00 0.00 0.00 0.00 0.00 0.00 0.00 0.00 0.00 0.00 0.00 0.00 0.00 0.00 0.00 0.00 0.00 0.01 0.01 0.02 0.02 0.01 0.01 0.01 0.02 0.03
0.00 0.00 0.00 0.00 0.00 0.00 0.00 0.00 0.00 0.00 0.00 0.00 0.00 0.00 0.00 0.00 0.00 0.00 0.00 0.00 0.00 0.00 0.00 0.00 0.00 0.00 0.00 0.00 0.00 0.00 0.00 0.00 0.00 0.00 0.00 0.00 0.01 0.01 0.01 0.01 0.02 0.02 0.02 0.04
0.00 0.00 0.00 0.00 0.00 0.00 0.00 0.00 0.00 0.00 0.00 0.00 0.00 0.00 0.00 0.00 0.00 0.00 0.00 0.00 0.00 0.00 0.00 0.00 0.00 0.00 0.00 0.00 0.00 0.00 0.00 0.00 0.00 0.00 0.00 0.00 0.00 0.00 0.00 0.01 0.01 0.02 0.03 0.04
0.00 0.00 0.00 0.00 0.00 0.00 0.00 0.00 0.00 0.00 0.00 0.00 0.00 0.00 0.00 0.00 0.00 0.00 0.00 0.00 0.00 0.00 0.00 0.00 0.00 0.00 0.00 0.00 0.00 0.00 0.00 0.00 0.00 0.00 0.00 0.00 0.00 0.00 0.00 0.00 0.01 0.01 0.02 0.02
0.00 0.00 0.00 0.00 0.00 0.00 0.00 0.00 0.00 0.00 0.00 0.00 0.00 0.00 0.00 0.00 0.00 0.00 0.00 0.00 0.00 0.00 0.00 0.00 0.00 0.00 0.00 0.00 0.00 0.00 0.00 0.00 0.00 0.00 0.00 0.00 0.00 0.00 0.00 0.00 0.01 0.01 0.02 0.02
0.00 0.00 0.00 0.00 0.00 0.00 0.00 0.00 0.00 0.00 0.00 0.00 0.00 0.00 0.00 0.00 0.00 0.00 0.00 0.00 0.00 0.00 0.00 0.00 0.00 0.00 0.00 0.00 0.00 0.00 0.00 0.00 0.00 0.00 0.00 0.00 0.00 0.00 0.00 0.00 0.01 0.01 0.01 0.02
0.00 0.00 0.00 0.00 0.00 0.00 0.00 0.00 0.00 0.00 0.00 0.00 0.00 0.00 0.00 0.00 0.00 0.00 0.00 0.00 0.00 0.00 0.00 0.00 0.00 0.00 0.00 0.00 0.00 0.00 0.00 0.00 0.00 0.00 0.00 0.00 0.00 0.00 0.00 0.00 0.00 0.01 0.01 0.01
0.00 0.00 0.00 0.00 0.00 0.00 0.00 0.00 0.00 0.00 0.00 0.00 0.00 0.00 0.00 0.00 0.00 0.00 0.00 0.00 0.00 0.00 0.00 0.00 0.00 0.00 0.00 0.00 0.00 0.00 0.00 0.00 0.00 0.00 0.00 0.00 0.00 0.00 0.00 0.00 0.00 0.00 0.01 0.01
0.00 0.00 0.00 0.00 0.00 0.00 0.00 0.00 0.00 0.00 0.00 0.00 0.00 0.00 0.00 0.00 0.00 0.00 0.00 0.00 0.00 0.00 0.00 0.00 0.00 0.00 0.00 0.00 0.00 0.00 0.00 0.00 0.00 0.00 0.00 0.00 0.00 0.00 0.00 0.00 0.00 0.00 0.00 0.00
0.00 0.00 0.00 0.00 0.00 0.00 0.00 0.00 0.00 0.00 0.00 0.00 0.00 0.00 0.00 0.00 0.00 0.00 0.00 0.00 0.00 0.00 0.00 0.00 0.00 0.00 0.00 0.00 0.00 0.00 0.00 0.00 0.00 0.00 0.00 0.00 0.00 0.00 0.00 0.00 0.00 0.00 0.00 0.00
0.00 0.00 0.00 0.00 0.00 0.00 0.00 0.00 0.00 0.00 0.00 0.00 0.00 0.00 0.00 0.00 0.00 0.00 0.00 0.00 0.00 0.00 0.00 0.00 0.00 0.00 0.00 0.00 0.00 0.00 0.00 0.00 0.00 0.00 0.00 0.00 0.00 0.00 0.00 0.00 0.00 0.00 0.00 0.00
0.00 0.00 0.00 0.00 0.00 0.00 0.00 0.00 0.00 0.00 0.00 0.00 0.00 0.00 0.00 0.00 0.00 0.00 0.00 0.00 0.00 0.00 0.00 0.00 0.00 0.00 0.00 0.00 0.00 0.00 0.00 0.00 0.00 0.00 0.00 0.00 0.00 0.00 0.00 0.00 0.00 0.00 0.00 0.00
0.00 0.00 0.00 0.00 0.00 0.00 0.00 0.00 0.00 0.00 0.00 0.00 0.00 0.00 0.00 0.00 0.00 0.00 0.00 0.00 0.00 0.00 0.00 0.00 0.00 0.00 0.00 0.00 0.00 0.00 0.00 0.00 0.00 0.00 0.00 0.00 0.00 0.00 0.00 0.00 0.00 0.00 0.00 0.00
0.00 0.00 0.00 0.00 0.00 0.00 0.00 0.00 0.00 0.00 0.00 0.00 0.00 0.00 0.00 0.00 0.00 0.00 0.00 0.00 0.00 0.00 0.00 0.00 0.00 0.00 0.00 0.00 0.00 0.00 0.00 0.00 0.00 0.00 0.00 0.00 0.00 0.00 0.00 0.00 0.00 0.00 0.00 0.00
0.00 0.00 0.00 0.00 0.00 0.00 0.00 0.00 0.00 0.00 0.00 0.00 0.00 0.00 0.00 0.00 0.00 0.00 0.00 0.00 0.00 0.00 0.00 0.00 0.00 0.00 0.00 0.00 0.00 0.00 0.00 0.00 0.00 0.00 0.00 0.00 0.00 0.00 0.00 0.00 0.00 0.00 0.00 0.00
0.00 0.00 0.00 0.00 0.00 0.00 0.00 0.00 0.00 0.00 0.00 0.00 0.00 0.00 0.00 0.00 0.00 0.00 0.00 0.00 0.00 0.00 0.00 0.00 0.00 0.00 0.00 0.00 0.00 0.00 0.00 0.00 0.00 0.00 0.00 0.00 0.00 0.00 0.00 0.00 0.00 0.00 0.00 0.00
0.00 0.00 0.00 0.00 0.00 0.00 0.00 0.00 0.00 0.00 0.00 0.00 0.00 0.00 0.00 0.00 0.00 0.00 0.00 0.00 0.00 0.00 0.00 0.00 0.00 0.00 0.00 0.00 0.00 0.00 0.00 0.00 0.00 0.00 0.00 0.00 0.00 0.00 0.00 0.00 0.00 0.00 0.00 0.00
0.00 0.00 0.00 0.00 0.00 0.00 0.00 0.00 0.00 0.00 0.00 0.00 0.00 0.00 0.00 0.00 0.00 0.00 0.00 0.00 0.00 0.00 0.00 0.00 0.00 0.00 0.00 0.00 0.00 0.00 0.00 0.00 0.00 0.00 0.00 0.00 0.00 0.00 0.00 0.00 0.00 0.00 0.00 0.00
0.00 0.00 0.00 0.00 0.00 0.00 0.00 0.00 0.00 0.00 0.00 0.00 0.00 0.00 0.00 0.00 0.00 0.00 0.00 0.00 0.00 0.00 0.00 0.00 0.00 0.00 0.00 0.00 0.00 0.00 0.00 0.00 0.00 0.00 0.00 0.00 0.00 0.00 0.00 0.00 0.00 0.00 0.00 0.00
0.00 0.00 0.00 0.00 0.00 0.00 0.00 0.00 0.00 0.00 0.00 0.00 0.00 0.00 0.00 0.00 0.00 0.00 0.00 0.00 0.00 0.00 0.00 0.00 0.00 0.00 0.00 0.00 0.00 0.00 0.00 0.00 0.00 0.00 0.00 0.00 0.00 0.00 0.00 0.00 0.00 0.00 0.00 0.00
0.00 0.00 0.00 0.00 0.00 0.00 0.00 0.00 0.00 0.00 0.00 0.00 0.00 0.00 0.00 0.00 0.00 0.00 0.00 0.00 0.00 0.00 0.00 0.00 0.00 0.00 0.00 0.00 0.00 0.00 0.00 0.00 0.00 0.00 0.00 0.00 0.00 0.00 0.00 0.00 0.00 0.00 0.00 0.00
0.00 0.00 0.00 0.00 0.00 0.00 0.00 0.00 0.00 0.00 0.00 0.00 0.00 0.00 0.00 0.00 0.00 0.00 0.00 0.00 0.00 0.00 0.00 0.00 0.00 0.00 0.00 0.00 0.00 0.00 0.00 0.00 0.00 0.00 0.00 0.00 0.00 0.00 0.00 0.00 0.00 0.00 0.00 0.00
0.00 0.00 0.00 0.00 0.00 0.00 0.00 0.00 0.00 0.00 0.00 0.00 0.00 0.00 0.00 0.00 0.00 0.00 0.00 0.00 0.00 0.00 0.00 0.00 0.00 0.00 0.00 0.00 0.00 0.00 0.00 0.00 0.00 0.00 0.00 0.00 0.00 0.00 0.00 0.00 0.00 0.00 0.00 0.00
0.00 0.00 0.00 0.00 0.00 0.00 0.00 0.00 0.00 0.00 0.00 0.00 0.00 0.00 0.00 0.00 0.00 0.00 0.00 0.00 0.00 0.00 0.00 0.00 0.00 0.00 0.00 0.00 0.00 0.00 0.00 0.00 0.00 0.00 0.00 0.00 0.00 0.00 0.00 0.00 0.00 0.00 0.00 0.00
0.00 0.00 0.00 0.00 0.00 0.00 0.00 0.00 0.00 0.00 0.00 0.00 0.00 0.00 0.00 0.00 0.00 0.00 0.00 0.00 0.00 0.00 0.00 0.00 0.00 0.00 0.00 0.00 0.00 0.00 0.00 0.00 0.00 0.00 0.00 0.00 0.00 0.00 0.01 0.01 0.01 0.01 0.01 0.01
0.00 0.00 0.00 0.00 0.00 0.00 0.00 0.00 0.00 0.00 0.00 0.00 0.00 0.00 0.00 0.00 0.00 0.00 0.00 0.00 0.00 0.00 0.00 0.00 0.00 0.00 0.00 0.00 0.00 0.00 0.00 0.00 0.00 0.00 0.01 0.01 0.01 0.01 0.01 0.01 0.02 0.02 0.02 0.02
0.00 0.00 0.00 0.00 0.00 0.00 0.00 0.00 0.00 0.00 0.00 0.00 0.00 0.00 0.00 0.00 0.00 0.00 0.00 0.00 0.00 0.00 0.00 0.00 0.00 0.00 0.00 0.00 0.00 0.00 0.00 0.00 0.00 0.01 0.01 0.01 0.02 0.02 0.02 0.02 0.03 0.03 0.03 0.03
MSLP
1017.32 1017.66 1017.96 1018.20 1018.35 1018.38 1018.29 1018.08 1017.76 1017.35 1016.90 1016.45 1016.03 1015.69 1015.44 1015.29 1015.23 1015.25 1015.33 1015.43 1015.55 1015.66 1015.77 1015.86 1015.94 1016.02 1016.10 1016.17 1016.23 1016.25 1016.24 1016.18 1016.06 1015.88 1015.65 1015.38 1015.08 1014.77 1014.46 1014.14 1013.82 1013.49 1013.13 1012.74
1017.29 1017.56 1017.77 1017.89 1017.92 1017.85 1017.66 1017.39 1017.03 1016.63 1016.21 1015.80 1015.45 1015.16 1014.95 1014.84 1014.79 1014.82 1014.88 1014.98 1015.10 1015.22 1015.34 1015.46 1015.59 1015.72 1015.86 1015.98 1016.09 1016.16 1016.18 1016.15 1016.06 1015.91 1015.70 1015.46 1015.18 1014.88 1014.58 1014.28 1013.97 1013.65 1013.30 1012.93
1017.25 1017.43 1017.53 1017.53 1017.44 1017.25 1016.97 1016.63 1016.25 1015.84 1015.45 1015.10 1014.81 1014.59 1014.44 1014.37 1014.35 1014.39 1014.47 1014.57 1014.69 1014.82 1014.96 1015.12 1015.28 1015.46 1015.64 1015.81 1015.96 1016.07 1016.13 1016.13 1016.06 1015.93 1015.74 1015.50 1015.23 1014.95 1014.66 1014.36 1014.07 1013.76 1013.44 1013.10
1017.16 1017.23 1017.21 1017.09 1016.88 1016.58 1016.22 1015.82 1015.41 1015.01 1014.66 1014.36 1014.13 1013.98 1013.90 1013.89 1013.92 1014.00 1014.09 1014.21 1014.34 1014.49 1014.65 1014.83 1015.03 1015.24 1015.46 1015.66 1015.84 1015.98 1016.06 1016.08 1016.03 1015.90 1015.72 1015.49 1015.23 1014.95 1014.67 1014.38 1014.10 1013.82 1013.53 1013.21
1016.96 1016.92 1016.78 1016.55 1016.23 1015.85 1015.42 1014.98 1014.56 1014.17 1013.85 1013.60 1013.44 1013.36 1013.35 1013.40 1013.49 1013.61 1013.74 1013.89 1014.04 1014.21 1014.39 1014.59 1014.80 1015.04 1015.27 1015.50 1015.70 1015.86 1015.96 1015.98 1015.94 1015.82 1015.64 1015.41 1015.15 1014.88 1014.61 1014.33 1014.07 1013.81 1013.55 1013.27
1016.60 1016.46 1016.22 1015.91 1015.52 1015.08 1014.62 1014.16 1013.73 1013.37 1013.08 1012.89 1012.78 1012.77 1012.82 1012.92 1013.07 1013.22 1013.39 1013.57 1013.74 1013.92 1014.11 1014.33 1014.55 1014.80 1015.05 1015.29 1015.50 1015.67 1015.77 1015.81 1015.77 1015.66 1015.49 1015.27 1015.02 1014.75 1014.49 1014.23 1013.99 1013.75 1013.52 1013.28
1016.06 1015.84 1015.54 1015.18 1014.77 1014.32 1013.85 1013.40 1013.00 1012.66 1012.41 1012.26 1012.20 1012.22 1012.32 1012.46 1012.64 1012.83 1013.02 1013.21 1013.40 1013.59 1013.79 1014.00 1014.23 1014.48 1014.73 1014.97 1015.19 1015.37 1015.49 1015.54 1015.52 1015.43 1015.27 1015.07 1014.84 1014.59 1014.34 1014.10 1013.87 1013.66 1013.45 1013.25
1015.33 1015.08 1014.78 1014.43 1014.03 1013.62 1013.19 1012.78 1012.42 1012.12 1011.90 1011.77 1011.74 1011.78 1011.89 1012.04 1012.22 1012.42 1012.62 1012.81 1012.99 1013.17 1013.36 1013.57 1013.79 1014.03 1014.28 1014.53 1014.75 1014.95 1015.09 1015.17 1015.18 1015.12 1014.99 1014.82 1014.62 1014.39 1014.17 1013.95 1013.75 1013.56 1013.38 1013.20
1014.48 1014.25 1013.98 1013.70 1013.38 1013.04 1012.69 1012.35 1012.05 1011.79 1011.60 1011.48 1011.44 1011.47 1011.56 1011.69 1011.85 1012.02 1012.19 1012.36 1012.52 1012.68 1012.85 1013.04 1013.24 1013.47 1013.71 1013.95 1014.19 1014.40 1014.57 1014.69 1014.74 1014.72 1014.65 1014.52 1014.36 1014.18 1013.98 1013.80 1013.63 1013.47 1013.32 1013.17
1013.57 1013.40 1013.23 1013.05 1012.85 1012.63 1012.39 1012.14 1011.90 1011.69 1011.51 1011.39 1011.32 1011.31 1011.36 1011.44 1011.55 1011.67 1011.79 1011.91 1012.03 1012.16 1012.29 1012.44 1012.62 1012.82 1013.04 1013.28 1013.52 1013.75 1013.95 1014.11 1014.21 1014.25 1014.23 1014.16 1014.05 1013.92 1013.77 1013.63 1013.49 1013.37 1013.25 1013.13
1012.69 1012.63 1012.59 1012.55 1012.49 1012.41 1012.29 1012.14 1011.97 1011.80 1011.64 1011.50 1011.39 1011.33 1011.31 1011.32 1011.36 1011.41 1011.47 1011.54 1011.60 1011.67 1011.76 1011.86 1012.00 1012.16 1012.36 1012.58 1012.81 1013.05 1013.27 1013.45 1013.59 1013.68 1013.72 1013.71 1013.66 1013.58 1013.49 1013.39 1013.30 1013.22 1013.14 1013.06
1011.92 1011.99 1012.09 1012.21 1012.30 1012.36 1012.37 1012.32 1012.22 1012.08 1011.93 1011.77 1011.63 1011.51 1011.42 1011.36 1011.33 1011.31 1011.30 1011.30 1011.31 1011.32 1011.35 1011.40 1011.48 1011.59 1011.73 1011.91 1012.12 1012.34 1012.54 1012.74 1012.90 1013.02 1013.10 1013.14 1013.14 1013.11 1013.07 1013.03 1012.98 1012.95 1012.92 1012.89
1011.31 1011.51 1011.76 1012.02 1012.26 1012.44 1012.56 1012.60 1012.56 1012.46 1012.32 1012.15 1011.98 1011.82 1011.67 1011.56 1011.47 1011.39 1011.33 1011.27 1011.22 1011.18 1011.14 1011.12 1011.13 1011.17 1011.25 1011.36 1011.50 1011.66 1011.83 1012.00 1012.15 1012.27 1012.36 1012.42 1012.45 1012.47 1012.47 1012.47 1012.48 1012.50 1012.53 1012.55
1010.87 1011.20 1011.57 1011.95 1012.31 1012.60 1012.80 1012.91 1012.93 1012.86 1012.74 1012.57 1012.39 1012.21 1012.04 1011.90 1011.78 1011.67 1011.57 1011.47 1011.37 1011.27 1011.18 1011.09 1011.01 1010.96 1010.94 1010.95 1011.00 1011.07 1011.16 1011.25 1011.34 1011.43 1011.50 1011.55 1011.59 1011.62 1011.66 1011.70 1011.75 1011.82 1011.90 1011.99
1010.59 1011.02 1011.50 1011.98 1012.41 1012.77 1013.04 1013.20 1013.27 1013.24 1013.14 1013.00 1012.83 1012.66 1012.50 1012.36 1012.23 1012.12 1012.01 1011.89 1011.76 1011.62 1011.46 1011.29 1011.13 1010.97 1010.83 1010.72 1010.64 1010.59 1010.56 1010.54 1010.54 1010.55 1010.56 1010.57 1010.59 1010.61 1010.65 1010.72 1010.80 1010.91 1011.03 1011.17
1010.43 1010.96 1011.51 1012.05 1012.54 1012.94 1013.25 1013.45 1013.55 1013.56 1013.50 1013.39 1013.27 1013.14 1013.01 1012.91 1012.81 1012.71 1012.61 1012.48 1012.34 1012.15 1011.94 1011.70 1011.44 1011.18 1010.92 1010.67 1010.44 1010.24 1010.07 1009.92 1009.80 1009.70 1009.62 1009.56 1009.52 1009.51 1009.54 1009.59 1009.68 1009.81 1009.96 1010.13
1010.38 1010.97 1011.58 1012.15 1012.67 1013.10 1013.43 1013.65 1013.78 1013.83 1013.81 1013.76 1013.69 1013.62 1013.55 1013.50 1013.44 1013.38 1013.30 1013.18 1013.03 1012.82 1012.56 1012.25 1011.91 1011.54 1011.16 1010.78 1010.41 1010.06 1009.74 1009.45 1009.19 1008.97 1008.78 1008.63 1008.52 1008.45 1008.43 1008.45 1008.52 1008.63 1008.78 1008.95
1010.41 1011.06 1011.70 1012.30 1012.82 1013.26 1013.59 1013.83 1013.99 1014.07 1014.11 1014.11 1014.11 1014.10 1014.10 1014.10 1014.10 1014.07 1014.02 1013.91 1013.75 1013.52 1013.22 1012.86 1012.45 1012.00 1011.52 1011.03 1010.54 1010.06 1009.61 1009.19 1008.81 1008.47 1008.17 1007.92 1007.72 1007.58 1007.49 1007.45 1007.47 1007.54 1007.64 1007.78
1010.53 1011.22 1011.88 1012.48 1013.01 1013.44 1013.78 1014.03 1014.20 1014.32 1014.40 1014.46 1014.51 1014.57 1014.62 1014.68 1014.72 1014.73 1014.69 1014.60 1014.43 1014.19 1013.87 1013.47 1013.02 1012.51 1011.97 1011.40 1010.83 1010.27 1009.73 1009.21 1008.73 1008.29 1007.90 1007.56 1007.27 1007.04 1006.87 1006.76 1006.69 1006.68 1006.71 1006.78
1010.73 1011.45 1012.12 1012.72 1013.23 1013.66 1013.99 1014.25 1014.44 1014.59 1014.71 1014.81 1014.91 1015.01 1015.11 1015.20 1015.26 1015.29 1015.27 1015.18 1015.01 1014.76 1014.43 1014.03 1013.56 1013.03 1012.47 1011.88 1011.28 1010.68 1010.09 1009.53 1008.99 1008.49 1008.03 1007.62 1007.25 1006.94 1006.68 1006.47 1006.31 1006.19 1006.12 1006.07
1011.02 1011.75 1012.41 1013.00 1013.50 1013.91 1014.23 1014.49 1014.69 1014.86 1015.01 1015.15 1015.28 1015.41 1015.53 1015.64 1015.71 1015.75 1015.72 1015.63 1015.46 1015.21 1014.89 1014.50 1014.04 1013.53 1012.99 1012.42 1011.84 1011.25 1010.67 1010.10 1009.55 1009.03 1008.54 1008.08 1007.66 1007.27 1006.93 1006.63 1006.36 1006.13 1005.93 1005.75
1011.38 1012.09 1012.73 1013.29 1013.77 1014.15 1014.47 1014.72 1014.94 1015.12 1015.28 1015.44 1015.59 1015.74 1015.87 1015.98 1016.05 1016.07 1016.04 1015.94 1015.77 1015.53 1015.22 1014.86 1014.44 1013.99 1013.50 1012.99 1012.46 1011.93 1011.39 1010.86 1010.34 1009.83 1009.33 1008.86 1008.40 1007.97 1007.56 1007.17 1006.81 1006.47 1006.14 1005.83
1011.78 1012.45 1013.04 1013.56 1014.00 1014.36 1014.66 1014.91 1015.12 1015.32 1015.49 1015.66 1015.83 1015.98 1016.10 1016.20 1016.26 1016.27 1016.22 1016.11 1015.95 1015.72 1015.44 1015.11 1014.75 1014.36 1013.95 1013.51 1013.07 1012.61 1012.15 1011.68 1011.21 1010.74 1010.26 1009.79 1009.33 1008.87 1008.42 1007.98 1007.54 1007.11 1006.68 1006.25
1012.16 1012.76 1013.29 1013.75 1014.15 1014.48 1014.76 1015.00 1015.22 1015.42 1015.61 1015.79 1015.96 1016.11 1016.23 1016.31 1016.35 1016.35 1016.28 1016.17 1016.00 1015.79 1015.54 1015.25 1014.95 1014.62 1014.28 1013.93 1013.57 1013.20 1012.81 1012.42 1012.01 1011.58 1011.15 1010.71 1010.25 1009.79 1009.33 1008.86 1008.38 1007.89 1007.39 1006.88
1012.47 1012.98 1013.44 1013.84 1014.19 1014.49 1014.75 1014.99 1015.21 1015.42 1015.62 1015.81 1015.98 1016.13 1016.25 1016.32 1016.34 1016.32 1016.24 1016.12 1015.95 1015.74 1015.51 1015.27 1015.00 1014.73 1014.46 1014.17 1013.88 1013.58 1013.27 1012.94 1012.59 1012.22 1011.83 1011.42 1011.00 1010.56 1010.11 1009.64 1009.16 1008.65 1008.12 1007.57
1012.65 1013.08 1013.47 1013.81 1014.11 1014.39 1014.63 1014.87 1015.10 1015.32 1015.54 1015.74 1015.92 1016.06 1016.17 1016.23 1016.24 1016.20 1016.11 1015.97 1015.80 1015.59 1015.38 1015.15 1014.91 1014.67 1014.44 1014.20 1013.96 1013.71 1013.44 1013.16 1012.86 1012.53 1012.18 1011.82 1011.43 1011.03 1010.61 1010.18 1009.72 1009.24 1008.73 1008.19
1012.70 1013.05 1013.37 1013.67 1013.94 1014.20 1014.44 1014.69 1014.93 1015.16 1015.39 1015.60 1015.78 1015.93 1016.03 1016.08 1016.07 1016.01 1015.90 1015.75 1015.56 1015.35 1015.12 1014.90 1014.67 1014.44 1014.22 1014.01 1013.79 1013.56 1013.32 1013.07 1012.79 1012.50 1012.19 1011.86 1011.52 1011.16 1010.79 1010.41 1010.00 1009.57 1009.11 1008.62
Thickness
5729 5727 5728 5727 5724 5719 5720 5725 5722 5729 5729 5738 5743 5741 5740 5737 5733 5728 5724 5720 5716 5712 5709 5704 5700 5695 5690 5685 5681 5676 5672 5667 5663 5660 5656 5652 5650 5648 5647 5645 5644 5642 5641 5641
5724 5725 5726 5724 5728 5726 5723 5726 5726 5729 5731 5748 5747 5745 5742 5740 5735 5730 5727 5724 5721 5717 5712 5708 5703 5698 5692 5688 5684 5680 5675 5670 5665 5662 5658 5654 5651 5650 5647 5645 5644 5643 5642 5640
5725 5724 5723 5724 5738 5733 5731 5734 5733 5731 5742 5748 5744 5743 5743 5743 5738 5734 5731 5728 5724 5721 5717 5713 5709 5703 5697 5692 5687 5683 5678 5673 5668 5665 5660 5656 5654 5651 5648 5647 5645 5643 5642 5641
5725 5721 5711 5739 5748 5745 5739 5741 5744 5744 5747 5747 5746 5747 5747 5746 5742 5739 5735 5731 5727 5724 5720 5716 5712 5707 5701 5696 5690 5686 5681 5676 5671 5667 5663 5659 5656 5653 5651 5649 5646 5644 5642 5641
5724 5721 5727 5740 5744 5742 5739 5742 5751 5748 5748 5749 5748 5747 5750 5750 5747 5743 5740 5735 5731 5727 5723 5719 5714 5709 5703 5698 5693 5688 5683 5679 5674 5670 5665 5662 5658 5655 5653 5651 5648 5646 5643 5641
5719 5716 5719 5738 5749 5751 5744 5738 5753 5751 5749 5748 5745 5743 5747 5751 5747 5743 5740 5736 5731 5727 5724 5719 5715 5710 5704 5700 5696 5691 5686 5682 5677 5673 5668 5664 5661 5658 5655 5653 5650 5648 5646 5644
5719 5720 5733 5746 5745 5742 5731 5739 5751 5752 5750 5748 5746 5749 5749 5748 5745 5742 5738 5735 5731 5727 5723 5719 5716 5710 5706 5703 5698 5694 5689 5685 5680 5675 5671 5668 5664 5661 5658 5655 5652 5651 5649 5647
5721 5718 5729 5743 5742 5740 5745 5751 5750 5750 5750 5748 5747 5747 5746 5744 5742 5739 5736 5733 5729 5725 5722 5719 5716 5710 5707 5703 5701 5696 5690 5685 5681 5678 5674 5671 5667 5663 5661 5658 5655 5653 5651 5650
5735 5736 5740 5741 5743 5742 5743 5744 5745 5746 5746 5745 5743 5743 5741 5741 5740 5737 5734 5731 5727 5724 5721 5718 5714 5710 5707 5704 5701 5696 5690 5687 5684 5680 5677 5673 5669 5666 5664 5661 5659 5657 5654 5652
5731 5737 5737 5735 5736 5736 5737 5738 5740 5741 5741 5741 5739 5739 5738 5738 5736 5734 5731 5728 5725 5722 5719 5717 5714 5710 5707 5705 5701 5696 5692 5689 5687 5683 5680 5677 5671 5669 5666 5664 5661 5659 5656 5654
5731 5735 5731 5729 5729 5729 5730 5733 5734 5735 5735 5735 5735 5734 5734 5733 5731 5730 5727 5725 5722 5719 5717 5716 5714 5710 5707 5703 5700 5696 5694 5692 5689 5685 5682 5678 5675 5671 5669 5666 5663 5659 5658 5656
5735 5738 5735 5731 5726 5723 5724 5725 5726 5727 5727 5727 5727 5726 5726 5726 5725 5723 5722 5720 5717 5715 5714 5713 5712 5708 5706 5702 5699 5696 5694 5693 5690 5686 5682 5679 5676 5674 5668 5664 5661 5657 5653 5651
5731 5727 5726 5721 5718 5717 5717 5717 5717 5718 5718 5717 5718 5718 5717 5717 5716 5715 5714 5713 5711 5710 5709 5708 5706 5704 5703 5700 5697 5694 5693 5691 5689 5686 5684 5680 5677 5674 5673 5668 5661 5658 5655 5652
5717 5715 5713 5712 5710 5709 5709 5709 5710 5709 5708 5708 5707 5707 5707 5707 5706 5705 5704 5704 5703 5702 5701 5700 5698 5697 5697 5696 5693 5691 5691 5689 5687 5685 5682 5681 5679 5676 5674 5671 5669 5668 5662 5656
5708 5709 5708 5704 5701 5700 5700 5701 5700 5698 5697 5696 5696 5696 5695 5695 5694 5693 5693 5693 5693 5692 5690 5690 5688 5687 5688 5688 5688 5687 5686 5686 5685 5683 5682 5680 5678 5676 5674 5672 5670 5669 5668 5663
5699 5696 5694 5693 5691 5690 5690 5690 5688 5686 5685 5684 5683 5683 5683 5683 5681 5680 5680 5680 5679 5678 5677 5676 5676 5676 5677 5679 5679 5680 5681 5679 5677 5678 5679 5677 5676 5674 5673 5672 5670 5669 5668 5666
5690 5687 5685 5683 5681 5680 5678 5677 5675 5674 5672 5671 5670 5670 5670 5670 5668 5667 5666 5666 5665 5664 5663 5663 5662 5664 5665 5667 5668 5671 5673 5675 5671 5671 5673 5674 5673 5673 5672 5670 5669 5668 5667 5667
5687 5684 5681 5676 5672 5668 5664 5662 5661 5660 5658 5657 5656 5656 5656 5655 5653 5652 5652 5652 5651 5650 5648 5648 5648 5650 5652 5654 5656 5659 5662 5665 5666 5666 5667 5667 5667 5668 5668 5667 5667 5665 5665 5664
5669 5666 5663 5660 5657 5655 5652 5649 5647 5646 5644 5643 5643 5642 5640 5639 5637 5637 5637 5636 5635 5634 5632 5632 5632 5637 5639 5640 5641 5645 5648 5651 5654 5656 5657 5657 5657 5659 5660 5661 5661 5661 5661 5660
5652 5649 5646 5643 5640 5638 5636 5634 5632 5630 5629 5628 5628 5627 5625 5623 5622 5622 5622 5620 5617 5615 5616 5616 5621 5622 5624 5626 5626 5630 5633 5636 5638 5641 5643 5645 5646 5648 5650 5652 5652 5653 5654 5654
5635 5632 5629 5627 5624 5621 5620 5618 5617 5615 5613 5613 5612 5611 5610 5608 5607 5607 5606 5605 5602 5599 5601 5603 5605 5605 5607 5608 5611 5614 5616 5618 5620 5623 5625 5628 5631 5633 5636 5638 5641 5642 5644 5645
5620 5617 5614 5611 5609 5606 5605 5604 5602 5600 5599 5597 5596 5596 5595 5594 5593 5592 5590 5587 5586 5584 5587 5588 5588 5587 5588 5591 5595 5596 5597 5599 5601 5603 5605 5607 5610 5614 5617 5620 5623 5627 5630 5632
5604 5602 5599 5597 5595 5593 5590 5589 5587 5586 5584 5583 5582 5581 5580 5578 5578 5577 5576 5573 5572 5569 5571 5571 5569 5569 5571 5575 5576 5577 5578 5579 5580 5581 5583 5585 5588 5591 5594 5598 5602 5606 5610 5614
5589 5586 5584 5582 5580 5579 5577 5575 5573 5572 5570 5569 5568 5567 5566 5565 5564 5563 5560 5557 5555 5554 5556 5554 5553 5554 5555 5558 5558 5558 5558 5557 5558 5559 5560 5563 5565 5567 5571 5574 5577 5582 5586 5591
5573 5571 5569 5567 5566 5565 5564 5562 5560 5558 5557 5557 5556 5554 5552 5551 5549 5548 5546 5544 5542 5540 5542 5541 5539 5538 5540 5541 5540 5539 5539 5537 5537 5537 5539 5540 5541 5543 5546 5548 5552 5556 5560 5566
5559 5557 5556 5554 5554 5551 5550 5549 5548 5547 5546 5545 5543 5542 5540 5538 5535 5534 5532 5532 5530 5528 5528 5528 5527 5525 5524 5523 5521 5520 5519 5519 5519 5518 5517 5517 5518 5519 5521 5523 5526 5529 5534 5538
5543 5542 5539 5539 5537 5537 5536 5535 5535 5534 5533 5532 5531 5529 5527 5525 5523 5522 5520 5519 5518 5517 5515 5513 5512 5510 5507 5505 5503 5502 5501 5499 5498 5496 5496 5495 5494 5495 5496 5497 5500 5503 5507 5511